Погода в Ярославском

Россия / Приморский край     44°11′07″N   132°13′30″E
темп.,
°C
ветер,
м/с
пор.,
м/с
влажн.,
%
обл.,
%
осадки,
мм/ч
давл.,
гПа
погр.,
м
18 мая, ср
ср1801:00+13ююз8154879 0.0 1010369
04:00+12ююз71458100 0.1 1010407
07:00+11ююз5107571 0.0 1012316
10:00+15юз3458100 0.0 1012467
13:00+18зюз5553100 0.1 10121614
16:00+19ююз2253100 0.4 1011977
19:00+13ю598699 1.9 1012401
22:00+11ю12896 1.9 101312
19 мая, чт
чт1901:00+10ююв22895 0.0 101314
04:00+9ююз228965 0.0 101315
07:00+10ю348622 0.0 101392
10:00+17ююз446248 0.0 1013484
13:00+21ююз55445 0.0 10101174
16:00+23ююз5640100 0.0 10071305
19:00+16ююз91666100 0.1 1008651
22:00+12ю61188100 8.1 1009340
20 мая, пт
пт2001:00+11ююз499596 0.6 1009272
04:00+10ююз36976 0.6 1008131
07:00+11ююз229564 0.0 100978
10:00+18ю11676 0.0 1009447
13:00+22ю125024 0.0 10091290
16:00+23ю44505 0.0 10061236
19:00+22ююз510615 0.0 1005421
22:00+17ю818495 0.0 1005455
21 мая, сб
сб2101:00+17ююз81653100 0.0 1005412
04:00+15ююз7155799 0.0 1003380
07:00+14ююз61274100 0.1 1004308
10:00+18ююз61062100 0.1 1003411
13:00+22юз695593 0.0 1002538
16:00+21ссз8764100 0.1 1001786
19:00+15ююв379399 12.4 1001218
22:00+14ссз4594100 12.6 1004125
22 мая, вс
вс2201:00+14ююз3795100 1.1 1002183
04:00+13с3697100 1.3 1003284
07:00+11с3797100 0.1 1004292
10:00+14с688294 0.1 1006839
13:00+17ссв810600 0.1 10071205
16:00+18ссв811510 0.1 10061350
19:00+17ссв47646 0.0 1007608
22:00+11св22815 0.0 100914